This demonstration page uses our WeatherBlox Daily Observations layout. Learn more.

Left ArrowRight Arrow

41.86663, -103.66717

Hourly Observations for February 10, 2019

Temp ( °F °C ) Dew Point ( °F °C ) Humidity (%) Winds ( mph kmh ) Pressure ( in mb ) Visibility ( mi km ) Precip ( " mm )
12:53 am 00:53 Cloudy with Light Snow 4 -15.6 N/A 83 83 NE 7 11 30.23 1024 6 10 N/A
1:53 am 01:53 Cloudy 4 -15.6 1 -17.2 88 88 ESE 5 7 30.19 1023 7 11 N/A
2:53 am 02:53 Cloudy 5 -15 1 -17.2 83 83 ENE 3 6 30.19 1022 10 16 N/A
3:53 am 03:53 Cloudy 5 -15 2 -16.7 87 87 N N/A 30.19 1022 10 16 N/A
4:53 am 04:53 Cloudy 5 -15 1 -17.2 83 83 N N/A 30.22 1023 10 16 N/A
5:53 am 05:53 Cloudy 5 -15 2 -16.7 87 87 N 5 7 30.23 1024 10 16 N/A
6:53 am 06:53 Cloudy 5 -15 3 -16.1 91 91 N 5 7 30.23 1024 8 13 N/A
7:53 am 07:53 Cloudy with Mist and Fog 6 -14.4 5 -15 95 95 ENE 3 6 30.25 1024 3 5 N/A
8:07 am 08:07 Cloudy with Mist and Fog 6 -14.4 5 -15 95 95 E 3 6 30.39 1029 3 4 N/A
8:18 am 08:18 Cloudy with Mist and Fog 7 -14 5 -15 92 92 ENE 3 6 30.38 1029 3 5 N/A
8:39 am 08:39 Cloudy with Light Snow 6 -14.4 4 -15.6 91 91 SE 3 6 30.39 1029 2 3 N/A
8:53 am 08:53 Cloudy with Mist and Fog 6 -14.4 5 -15 95 95 SE 3 6 30.25 1024 4 6 N/A
9:21 am 09:21 Cloudy with Light Snow 7 -13.9 5 -15 91 91 ESE 6 9 30.38 1029 2 3 N/A
9:36 am 09:36 Cloudy with Mist and Fog 7 -13.9 5 -15 91 91 ESE 5 7 30.37 1028 4 6 N/A
9:53 am 09:53 Cloudy with Mist and Fog 8 -13.3 5 -15 87 87 E 6 9 30.24 1024 3 5 N/A
10:05 am 10:05 Cloudy with Light Snow 8 -13.3 6 -14.4 92 92 ESE 6 9 30.36 1028 2 3 N/A
10:20 am 10:20 Cloudy with Mist and Fog 9 -13 7 -14 92 92 ESE 3 6 30.34 1027 4 6 N/A
10:31 am 10:31 Cloudy with Light Snow 9 -12.8 6 -14.4 88 88 E 5 7 30.34 1027 2 3 N/A
10:42 am 10:42 Cloudy with Light Snow 9 -13 7 -14 92 92 SSE 5 7 30.35 1028 2 2 N/A
10:53 am 10:53 Cloudy with Light Snow 9 -12.8 6 -14.4 88 88 ESE 5 7 30.23 1024 2 3 N/A
11:14 am 11:14 Cloudy with Light Snow 10 -12.2 7 -13.9 87 87 SE 5 7 30.33 1027 3 4 N/A
11:29 am 11:29 Cloudy with Mist and Fog 11 -11.7 8 -13.3 88 88 VRB 5 7 30.30 1026 5 8 N/A
11:53 am 11:53 Cloudy with Mist and Fog 12 -11.1 9 -12.8 87 87 ENE 6 9 30.18 1022 4 6 N/A
12:10 pm 12:10 Cloudy with Mist and Fog 13 -10.6 10 -12.2 88 88 E 5 7 30.23 1024 4 6 N/A
12:53 pm 12:53 Cloudy with Mist and Fog 14 -10 11 -11.7 88 88 SE 9 15 30.12 1020 4 6 N/A
1:13 pm 13:13 Mostly Cloudy 16 -8.9 12 -11.1 84 84 ESE 12 19 30.17 1022 8 13 N/A
1:23 pm 13:23 Partly Cloudy 16 -8.9 11 -11.7 80 80 E 12 19 30.16 1021 9 14 N/A
1:53 pm 13:53 Sunny 17 -8.3 13 -10.6 84 84 ESE 14 22 30.09 1019 10 16 N/A
2:53 pm 14:53 Sunny 21 -6.1 15 -9.4 78 78 ESE 13 20 30.04 1017 10 16 N/A
3:53 pm 15:53 Sunny 23 -5 16 -8.9 74 74 ESE 14 22 30.02 1017 10 16 N/A
4:53 pm 16:53 Sunny 22 -5.6 16 -8.9 78 78 ESE 14 22 29.98 1015 10 16 N/A
5:53 pm 17:53 Clear 21 -6.1 15 -9.4 78 78 E 16 26 29.98 1015 10 16 N/A
6:53 pm 18:53 Clear 19 -7.2 15 -9.4 84 84 ESE 16 26 29.99 1016 10 16 N/A
7:53 pm 19:53 Clear 18 -7.8 15 -9.4 88 88 ESE 17 28 29.97 1015 10 16 N/A
8:53 pm 20:53 Clear 16 -8.9 14 -10 92 92 ESE 18 30 29.97 1015 10 16 N/A
9:53 pm 21:53 Clear 15 -9.4 13 -10.6 91 91 ESE 20 31 29.94 1014 10 16 N/A
10:53 pm 22:53 Clear 16 -8.9 14 -10 92 92 ESE 14 22 29.94 1014 10 16 N/A
11:23 pm 23:23 Mostly Cloudy 16 -9 14 -10 93 93 ESE 18 30 30.01 1016 10 16 N/A
11:53 pm 23:53 Cloudy 17 -8.3 15 -9.4 92 92 ESE 15 24 29.90 1013 10 16 N/A

Powered by AerisWeather